Wind_Speed
17 17 17 17 18 18 17 17 16 16 15 15 15 15 15 17 18 18 19 20 20 20 19 20 21 21 23 24 25 26 28 28 28 28 27 26 26 27 27 28 30 30 30 30
17 17 17 18 17 17 17 17 17 17 16 16 15 15 15 16 17 17 19 20 21 20 20 21 21 22 22 23 24 25 26 27 27 28 28 28 27 27 26 27 29 29 30 31
18 17 18 18 17 17 17 17 17 17 17 17 17 16 15 16 17 18 18 19 20 20 20 21 22 22 22 23 24 24 25 27 27 28 28 28 30 29 28 28 29 30 31 32
17 18 17 17 18 18 18 17 18 17 17 17 17 17 15 16 16 17 18 18 19 20 21 21 22 22 23 24 24 24 24 25 27 28 28 29 30 29 28 28 29 30 31 32
18 18 18 18 18 18 18 18 18 18 18 18 17 18 15 15 16 16 17 18 19 20 21 22 22 22 23 24 25 25 25 25 27 28 29 30 30 30 29 29 30 31 32 33
20 20 19 18 18 18 18 18 18 18 18 18 17 18 16 16 16 17 18 19 20 21 21 21 22 22 23 24 25 26 27 27 28 28 29 30 30 30 29 30 31 32 33 33
23 22 21 20 20 20 20 20 20 20 20 19 18 19 17 17 17 18 19 20 21 22 22 23 23 23 23 25 26 27 28 28 29 29 29 30 30 30 31 32 32 33 34 35
25 24 23 23 22 22 22 21 21 22 22 21 20 20 18 18 18 19 20 21 22 23 23 24 24 25 25 26 27 28 29 30 30 30 30 30 32 32 33 33 34 35 36 37
26 26 25 25 24 23 23 23 22 23 23 23 23 22 20 20 19 19 20 21 22 23 24 25 26 26 27 27 29 29 30 31 31 31 32 32 33 33 34 35 36 36 37 39
28 28 26 26 26 25 25 24 23 24 24 24 24 22 21 20 20 20 21 22 23 24 25 26 26 27 28 29 30 31 31 32 32 33 34 34 34 36 36 37 37 39 39 40
30 30 28 27 27 26 26 26 25 26 26 26 26 24 23 23 23 23 23 24 24 25 26 27 28 29 29 31 32 33 34 35 35 36 36 36 37 38 38 39 40 41 41 42
31 31 31 29 29 28 28 28 27 28 28 28 28 26 26 25 26 26 26 26 27 28 29 29 30 31 32 32 33 34 36 37 38 39 38 39 40 40 41 42 42 43 44 44
33 33 33 32 31 31 31 30 30 30 31 30 30 28 28 28 28 29 29 29 30 31 31 32 33 34 35 36 36 37 37 38 39 40 40 41 42 43 44 44 45 46 46 46
35 35 35 34 33 33 33 33 33 33 33 33 31 29 29 31 31 31 32 33 33 34 34 35 36 37 38 39 39 40 40 41 41 42 42 43 44 44 45 46 47 48 48 49
35 36 36 36 36 36 36 35 35 36 35 35 33 33 31 33 34 35 36 36 36 36 37 38 39 39 40 41 41 42 42 43 44 44 45 45 46 46 46 47 49 50 51 51
37 37 37 37 37 38 38 38 37 37 37 38 37 36 35 36 37 37 38 38 39 39 40 41 41 42 43 43 44 44 44 45 46 46 46 47 47 47 48 48 49 50 51 52
39 39 39 39 39 40 41 39 38 39 39 39 39 37 38 39 39 39 40 40 40 41 42 43 43 44 45 46 46 46 46 47 47 48 48 48 49 49 50 50 50 51 51 51
39 39 40 41 41 42 40 39 39 40 39 40 41 40 41 41 41 41 42 43 43 43 43 44 45 45 46 47 47 48 48 49 49 49 49 50 50 51 51 51 51 51 51 51
40 39 40 40 42 42 40 40 39 40 40 40 41 41 42 42 43 42 43 43 44 44 44 44 45 46 46 47 47 48 49 49 49 49 50 50 51 51 51 51 51 51 52 51
40 40 40 40 41 41 40 40 40 41 41 40 41 41 42 42 43 42 43 44 44 44 44 44 45 45 46 47 47 48 48 49 49 49 49 50 50 51 51 51 51 51 51 51
39 39 39 40 41 41 40 40 40 41 40 40 41 41 42 42 43 43 43 43 44 44 45 45 46 46 47 47 48 48 48 48 48 48 48 49 50 50 50 50 50 50 50 50
39 40 39 39 40 40 40 40 40 40 40 40 40 41 41 42 42 43 43 43 44 45 46 46 46 47 47 47 48 47 47 47 47 47 47 47 48 48 48 49 48 49 48 48
38 38 38 39 39 39 39 40 41 41 41 40 41 41 42 42 43 43 43 44 45 45 46 46 46 46 46 47 47 47 47 47 46 46 45 45 46 46 46 46 46 46 46 46
37 38 39 39 38 39 39 40 41 41 41 41 41 42 42 42 42 43 43 43 44 44 45 46 46 46 46 46 46 46 46 46 46 45 45 44 44 44 44 44 44 44 44 45
38 39 39 40 39 39 39 39 39 40 40 41 41 41 41 42 42 42 42 43 44 45 45 46 46 46 46 46 45 45 45 45 44 44 43 43 43 43 43 43 43 44 44 44
38 39 39 39 39 39 39 39 39 39 40 40 40 41 41 41 42 42 43 44 45 45 45 45 45 45 45 45 44 44 44 44 43 42 41 41 42 42 42 42 42 42 43 43
Wind_Direction
271 270 267 268 271 271 271 271 272 271 272 274 274 267 265 263 261 256 252 250 248 247 246 243 244 246 247 245 243 244 247 246 246 246 245 245 246 249 252 253 251 250 249 249
272 271 269 268 270 270 269 269 269 270 271 275 276 271 266 264 264 260 252 250 251 249 246 245 247 248 247 245 244 245 248 246 249 248 247 247 248 248 249 251 251 251 251 251
274 272 269 267 267 268 267 267 268 269 270 273 274 272 269 267 263 258 254 251 250 249 248 249 250 249 247 247 245 247 248 248 250 250 250 249 250 249 251 252 253 253 253 253
272 270 270 266 263 263 263 265 268 270 270 272 273 273 269 267 266 260 254 252 251 250 250 252 253 251 249 248 247 249 252 252 252 252 252 251 252 253 254 255 257 256 254 255
270 268 267 264 262 260 260 263 267 268 270 270 270 270 269 266 264 261 255 253 253 252 252 252 253 252 252 251 251 252 253 255 255 254 254 254 254 255 257 259 259 259 256 258
268 267 266 263 261 259 260 263 265 266 269 269 268 270 269 266 265 262 258 254 254 255 254 252 253 255 255 253 255 255 256 257 258 258 257 255 257 259 260 261 262 262 261 263
265 265 264 262 260 259 261 263 265 266 267 270 270 271 271 269 266 262 259 255 253 253 253 253 254 255 257 255 257 258 259 259 261 260 260 259 261 262 261 261 262 263 265 265
264 263 262 260 260 260 261 263 265 268 269 269 269 271 273 270 268 264 259 256 255 254 254 254 256 256 257 257 259 264 262 261 261 261 263 262 263 263 263 263 263 264 265 266
264 263 260 259 259 259 259 261 264 267 268 269 268 269 271 272 270 265 262 260 259 259 258 257 257 260 261 261 263 265 263 262 262 265 265 267 265 266 266 265 265 266 267 267
262 261 258 257 257 257 258 260 261 264 267 269 269 269 270 270 269 265 264 263 262 262 261 262 262 263 264 265 266 266 265 263 263 265 267 268 265 266 266 266 267 267 269 270
260 259 256 255 255 256 257 258 260 262 265 268 270 270 271 272 271 270 268 265 263 262 263 263 263 264 265 266 267 266 265 264 264 265 267 268 267 266 266 266 267 268 269 271
258 257 256 255 254 255 255 256 258 261 264 266 269 272 271 272 273 272 270 266 264 263 264 264 264 265 266 266 267 266 265 265 265 266 268 269 268 267 267 268 268 269 270 271
256 256 256 254 254 254 255 256 258 261 263 265 267 271 271 271 272 271 270 268 266 264 264 265 266 266 267 267 268 268 267 267 267 268 269 269 270 269 269 269 269 269 270 271
257 256 256 256 257 257 257 257 259 261 263 265 267 269 269 270 270 270 270 269 267 265 265 266 266 267 267 268 268 269 269 269 269 269 269 270 270 270 270 270 270 270 271 272
256 256 256 256 256 257 258 258 260 262 264 266 267 267 268 269 269 270 270 269 268 266 266 267 267 267 267 268 269 269 269 269 269 270 270 270 271 271 271 272 272 271 272 272
255 256 256 256 257 257 258 259 260 262 264 266 266 267 268 269 269 269 269 269 268 267 267 267 268 267 268 268 269 269 269 269 269 270 270 271 271 271 272 273 273 273 273 273
254 255 256 256 256 257 257 260 262 263 264 265 266 267 267 268 269 269 269 269 268 268 268 268 268 268 268 268 269 269 269 269 269 270 270 271 271 272 272 273 274 274 274 274
254 254 255 256 256 256 260 260 261 262 264 265 266 266 267 268 269 269 269 269 269 269 269 268 268 269 269 270 270 270 269 269 269 270 270 271 271 271 272 273 274 274 274 274
253 254 256 257 258 260 260 262 263 264 264 265 266 267 268 268 269 269 269 268 268 269 269 270 270 270 270 271 271 271 271 270 270 270 271 271 272 272 272 272 273 273 273 273
254 254 256 258 260 262 263 263 264 265 265 266 267 267 268 269 270 270 269 269 270 270 270 271 271 272 272 272 272 272 272 271 270 270 271 272 272 272 272 273 273 273 273 273
256 256 257 259 262 264 264 265 266 267 268 268 268 269 269 270 271 271 270 270 271 271 272 272 273 273 273 273 273 274 273 272 271 270 271 271 272 272 273 272 272 272 273 273
258 258 259 260 261 263 264 266 267 269 269 269 269 269 270 271 271 272 272 272 272 273 274 274 274 275 274 274 274 274 274 273 271 271 271 272 273 273 274 273 273 273 273 273
258 259 259 259 261 263 263 265 267 267 268 268 268 269 270 270 271 271 272 272 273 274 275 275 275 275 274 274 274 274 273 272 270 270 271 272 273 274 274 273 272 272 272 273
256 256 257 258 260 261 263 265 266 267 267 267 268 269 269 270 271 271 273 273 274 275 275 275 275 275 275 275 274 274 273 271 270 270 271 272 273 273 273 273 272 271 272 273
257 257 257 259 260 261 262 264 265 266 267 267 268 269 270 271 272 273 274 275 276 277 277 276 276 276 276 275 275 274 274 272 271 270 271 272 273 273 273 273 272 272 273 273
257 258 259 259 260 262 263 264 265 266 267 268 270 271 272 273 273 273 274 275 276 278 278 277 276 276 277 276 275 274 273 272 271 271 272 273 274 275 274 273 272 273 273 273
Height
5731 5731 5731 5731 5730 5730 5730 5729 5729 5729 5728 5727 5727 5727 5726 5725 5725 5727 5728 5729 5730 5732 5734 5735 5736 5738 5739 5741 5744 5746 5747 5749 5751 5754 5756 5758 5760 5763 5764 5766 5768 5769 5771 5773
5728 5727 5727 5726 5726 5725 5725 5725 5725 5725 5724 5723 5723 5723 5723 5722 5722 5722 5723 5724 5726 5727 5729 5730 5731 5733 5734 5736 5738 5740 5742 5744 5746 5748 5750 5752 5754 5756 5758 5759 5761 5763 5764 5766
5723 5723 5722 5722 5721 5721 5721 5721 5721 5721 5720 5719 5719 5719 5719 5719 5718 5718 5719 5720 5721 5723 5724 5726 5727 5728 5729 5731 5733 5735 5737 5738 5740 5742 5744 5746 5748 5750 5752 5753 5755 5756 5757 5759
5717 5717 5717 5717 5717 5717 5717 5717 5717 5716 5716 5715 5715 5714 5715 5714 5714 5714 5715 5716 5717 5719 5720 5721 5722 5723 5724 5726 5728 5730 5731 5732 5734 5736 5738 5740 5742 5744 5745 5747 5748 5749 5750 5751
5713 5712 5712 5712 5713 5713 5713 5713 5712 5712 5711 5711 5711 5710 5712 5710 5710 5710 5711 5712 5713 5714 5716 5717 5718 5718 5719 5720 5722 5724 5726 5727 5728 5730 5732 5734 5735 5737 5738 5739 5741 5741 5743 5744
5707 5707 5707 5707 5707 5708 5708 5708 5707 5707 5706 5707 5707 5705 5707 5706 5706 5706 5707 5708 5709 5710 5711 5712 5713 5713 5714 5715 5717 5718 5720 5721 5722 5723 5725 5727 5728 5730 5731 5732 5733 5734 5735 5735
5701 5701 5701 5701 5701 5702 5702 5703 5702 5701 5701 5702 5701 5700 5702 5702 5701 5701 5702 5703 5703 5705 5705 5707 5708 5709 5709 5710 5711 5712 5713 5714 5715 5717 5718 5719 5721 5722 5723 5724 5725 5726 5726 5727
5693 5695 5695 5695 5696 5696 5696 5697 5697 5697 5696 5696 5696 5695 5697 5696 5696 5695 5696 5697 5698 5699 5700 5701 5702 5703 5704 5704 5705 5706 5706 5707 5709 5710 5711 5712 5713 5714 5715 5716 5716 5717 5717 5717
5685 5687 5688 5688 5689 5690 5690 5690 5691 5691 5690 5690 5690 5691 5691 5691 5690 5690 5690 5691 5692 5693 5694 5695 5696 5697 5697 5698 5699 5699 5700 5701 5702 5702 5703 5704 5705 5705 5706 5706 5706 5707 5707 5707
5677 5678 5680 5681 5682 5682 5683 5684 5684 5683 5683 5683 5684 5684 5685 5685 5685 5685 5685 5685 5685 5686 5687 5688 5689 5690 5690 5690 5691 5692 5693 5693 5694 5694 5695 5695 5696 5696 5696 5697 5697 5697 5697 5697
5669 5670 5672 5673 5674 5675 5676 5677 5676 5676 5676 5677 5677 5680 5679 5679 5679 5678 5678 5678 5678 5679 5680 5680 5681 5682 5682 5683 5683 5684 5684 5684 5685 5685 5685 5685 5685 5686 5686 5686 5686 5686 5686 5685
5660 5661 5662 5665 5666 5666 5667 5668 5669 5670 5670 5669 5670 5674 5671 5671 5671 5671 5670 5670 5671 5671 5672 5672 5673 5673 5674 5674 5675 5675 5675 5675 5675 5675 5675 5675 5675 5675 5675 5675 5675 5674 5674 5674
5650 5651 5653 5654 5658 5658 5658 5659 5660 5661 5661 5661 5662 5667 5663 5663 5663 5663 5662 5662 5662 5663 5663 5664 5664 5664 5664 5665 5665 5665 5665 5665 5665 5665 5664 5664 5663 5663 5663 5663 5662 5662 5661 5661
5639 5641 5644 5646 5647 5648 5649 5651 5651 5651 5651 5652 5654 5656 5656 5654 5654 5654 5654 5653 5653 5654 5654 5654 5654 5654 5654 5654 5654 5654 5654 5654 5654 5653 5653 5652 5651 5651 5651 5650 5649 5649 5648 5647
5629 5630 5632 5634 5636 5637 5638 5640 5641 5641 5642 5643 5645 5645 5646 5644 5644 5644 5644 5643 5643 5643 5643 5643 5643 5643 5643 5643 5643 5643 5642 5642 5642 5641 5641 5640 5639 5638 5637 5636 5636 5635 5634 5633
5617 5619 5621 5623 5625 5625 5626 5628 5630 5631 5632 5632 5633 5635 5635 5633 5633 5633 5633 5632 5632 5632 5632 5632 5631 5631 5631 5631 5631 5630 5630 5629 5628 5628 5627 5626 5625 5625 5624 5623 5622 5621 5620 5619
5606 5608 5610 5612 5614 5613 5615 5620 5620 5620 5621 5621 5622 5625 5623 5622 5622 5622 5621 5621 5621 5620 5620 5620 5619 5619 5618 5618 5617 5617 5616 5615 5615 5614 5613 5612 5611 5610 5609 5608 5607 5606 5605 5604
5596 5597 5598 5599 5601 5601 5609 5608 5608 5608 5609 5609 5610 5611 5610 5610 5609 5609 5609 5609 5608 5608 5607 5607 5606 5606 5605 5604 5603 5603 5602 5601 5600 5599 5598 5597 5596 5595 5594 5593 5592 5591 5590 5589
5584 5585 5586 5587 5588 5590 5595 5596 5596 5596 5597 5597 5598 5598 5598 5597 5597 5598 5597 5596 5595 5595 5594 5593 5593 5592 5591 5590 5589 5588 5587 5586 5585 5584 5584 5583 5581 5580 5579 5578 5577 5576 5574 5574
5572 5574 5575 5575 5576 5579 5585 5584 5583 5583 5584 5586 5585 5585 5585 5584 5584 5585 5584 5583 5582 5582 5581 5580 5579 5578 5577 5576 5575 5574 5572 5571 5571 5570 5569 5568 5566 5565 5564 5563 5562 5560 5559 5558
5561 5562 5563 5564 5564 5566 5570 5570 5570 5572 5574 5573 5572 5572 5572 5571 5571 5571 5570 5569 5569 5568 5567 5566 5565 5564 5563 5562 5560 5559 5558 5556 5555 5554 5553 5553 5551 5550 5549 5547 5546 5545 5544 5543
5549 5550 5552 5552 5553 5557 5558 5558 5559 5559 5559 5559 5559 5559 5559 5558 5558 5557 5557 5556 5555 5554 5554 5552 5551 5550 5549 5547 5546 5545 5543 5542 5540 5540 5539 5538 5537 5535 5534 5532 5531 5530 5529 5528
5538 5539 5540 5541 5544 5544 5544 5545 5545 5545 5546 5546 5546 5546 5546 5545 5545 5544 5544 5543 5542 5541 5539 5538 5537 5536 5534 5533 5531 5530 5529 5527 5526 5525 5524 5523 5522 5521 5519 5518 5517 5516 5515 5514
5526 5527 5528 5529 5531 5532 5532 5532 5533 5533 5533 5533 5533 5533 5532 5532 5532 5531 5530 5529 5528 5527 5526 5524 5523 5521 5520 5518 5516 5515 5514 5513 5512 5511 5511 5509 5508 5507 5505 5504 5503 5502 5501 5500
5515 5515 5516 5517 5519 5519 5521 5521 5521 5520 5520 5520 5520 5520 5520 5519 5518 5518 5517 5515 5514 5513 5511 5510 5508 5507 5506 5504 5502 5501 5499 5498 5498 5498 5497 5496 5495 5493 5492 5490 5489 5488 5488 5486
5503 5504 5505 5506 5507 5507 5508 5508 5508 5508 5508 5508 5508 5507 5507 5506 5505 5504 5503 5502 5501 5499 5497 5496 5494 5493 5491 5490 5488 5487 5485 5484 5484 5484 5484 5482 5481 5480 5478 5477 5477 5475 5474 5474